Location: Perryvale
(54.4667°N, 113.3833°W)
Time: 23:26:11
(UTC+00:00)

Vanguard 1 Rocket - Pass Details

Date: 27 May 2024
Orbit: 649 x 4221 km, 34.3° (Epoch: 13 June)

Event Time Altitude Azimuth Distance (km) Brightness Sun altitude
Rises 17:23:21 0° 246° (WSW) 8,226 12.1 49.2°
Reaches altitude 10° 17:30:16 10° 239° (WSW) 6,844 11.9 50.0°
Maximum altitude 17:47:10 34° 186° (S) 3,785 11.5 51.7°
Drops below altitude 10° 17:57:24 10° 127° (SE) 4,153 11.6 52.6°
Sets 18:00:24 0° 118° (ESE) 4,751 11.6 52.9°
